Flag for U.S.A. Weather past 2 weeks in Santa Fe, New Mexico, U.S.A.

Now
46 °F

Clear.


Feels Like: 42 °F
Forecast: 35 / 59 °F
Wind: 7 mph from South

Location: Santa Fe County Municipal Airport


UV Index: 7 (High)

Visibility: 10 mi


Pressure: 29.81 "Hg

Humidity: 54%

Dew point: 30 °F

Location of Santa FeLocation

Historic Weather in Santa Fe

°F

Santa Fe temperature yesterday

Maximum temperature yesterday: 67 °F (at 1:53 PM)
Minimum temperature yesterday: 35 °F (at 4:53 AM)
Average temperature yesterday: 53 °F

Past Weeks' High & Low Weather Summary

 TemperatureHumidityPressure
High76 °F (Apr 9, 2:53 PM)96% (Apr 6, 5:53 AM)30.26 "Hg (Apr 6, 5:53 AM)
Low20 °F (Apr 15, 5:53 AM)5% (Apr 10, 2:53 PM)29.45 "Hg (Apr 13, 2:53 PM)
Average48 °F34%29.87 "Hg
* Reported Apr 1 11:53 PM — Apr 16 11:53 PM, Santa Fe, Weather by CustomWeather, © 2014

Note: Actual official high and low records may vary slightly from our data, if they occured in-between our weather recording intervals... More about our weather records

Advertising

Historic Weather Conditions — Data for Previous 24 hours

 ConditionsComfort  
Time TempWeatherWind HumidityBarometerVisibility
11:53 PM
Apr 16
50 °FOvercast.15 mph44%29.79 "Hg10 mi
10:53 PM53 °FPassing clouds.No wind30%29.77 "Hg10 mi
9:53 PM54 °FOvercast.5 mph26%29.77 "Hg10 mi
8:53 PM57 °FPassing clouds.16 mph21%29.75 "Hg10 mi
7:53 PM59 °FScattered clouds.10 mph15%29.72 "Hg10 mi
6:53 PM62 °FPassing clouds.10 mph11%29.67 "Hg10 mi
5:53 PM65 °FSunny.12 mph8%29.65 "Hg10 mi
4:53 PM66 °FSunny.17 mph8%29.65 "Hg10 mi
3:53 PM67 °FSunny.18 mph8%29.62 "Hg10 mi
2:53 PM67 °FSunny.21 mph9%29.63 "Hg10 mi
1:53 PM67 °FSunny.16 mph9%29.64 "Hg10 mi
12:53 PM65 °FSunny.10 mph10%29.68 "Hg10 mi
11:53 AM61 °FSunny.N/A11%29.70 "Hg10 mi
10:53 AM58 °FSunny.14 mph14%29.74 "Hg10 mi
9:53 AM54 °FSunny.9 mph16%29.74 "Hg10 mi
8:53 AM49 °FSunny.8 mph21%29.75 "Hg10 mi
7:53 AM43 °FSunny.No wind24%29.77 "Hg10 mi
6:53 AM39 °FClear.3 mph26%29.74 "Hg10 mi
5:53 AM38 °FClear.5 mph27%29.71 "Hg10 mi
4:53 AM35 °FClear.7 mph31%29.74 "Hg10 mi
3:53 AM38 °FClear.8 mph29%29.73 "Hg10 mi
2:53 AM40 °FClear.6 mph27%29.72 "Hg10 mi
1:53 AM45 °FClear.12 mph22%29.73 "Hg10 mi
Weather by CustomWeather, © 2014

See weather overview